[[{"header":{"parameterUnit":"m.s-1","parameterCategory":1,"la1":30.2991,"la2":30.254,"lo1":-89.0895,"lo2":-89.0444,"dy":0.0017,"dx":0.0017,"nx":28,"ny":28,"refTime":"2023-07-21T21:00:00:Z","depth":0,"parameterNumber":2,"parameterNumberName":"U-component_of_WINDS"},"data":[0,0,0,0,0,0,0,0,0,0,0,0,0,0,0,0,0,0,0,0,0,0,0,0,0,0,0,0,0,0,0,0,0,0,0,0,0,0,0,0,0,0,0,0,0,0,0,0,0,0,0,0,0,0,0,0,0,0,6.401,6.4012,0,6.4142,6.4143,6.4145,6.4054,6.405,6.4046,6.4042,6.4176,6.4183,6.419,0,0,0,0,0,0,0,0,0,0,0,0,0,6.3677,6.3684,6.401,6.4012,6.4014,6.4142,6.4143,6.4145,6.4055,6.405,6.4045,6.404,6.4174,6.4182,6.4191,0,0,0,0,0,0,0,0,0,0,0,0,0,6.3817,6.3686,6.401,6.3984,6.3983,6.4141,6.4144,6.4146,6.4056,6.405,6.4044,6.4038,6.4171,6.4181,6.4192,6.4383,0,0,6.4226,6.4231,0,0,0,0,0,0,0,0,6.3809,6.3829,6.3986,6.3986,6.3985,6.4075,6.4075,6.4225,6.4058,6.4028,6.4042,6.4035,6.4147,6.416,6.4198,6.439,6.4395,6.4227,6.4234,6.4239,6.4242,0,0,0,0,0,0,0,6.3799,6.3823,6.4062,6.3989,6.3988,6.3964,6.3978,6.4103,6.4121,6.403,6.4024,6.4041,6.4146,6.4188,6.4201,6.4397,6.4227,6.4237,6.4243,6.4248,6.4746,6.4753,0,0,0,0,0,0,6.3792,6.3815,6.4058,6.4066,6.388,6.3976,6.399,6.4053,6.4119,6.4123,6.4046,6.4036,6.4172,6.4188,6.4205,6.4429,6.4238,6.4249,6.4255,6.474,6.4748,6.4755,0,0,0,0,0,0,6.3786,6.3815,6.4053,6.3939,6.3968,6.3988,6.4059,6.4058,6.41,6.4131,6.4133,6.4086,6.4168,6.4189,6.4338,6.4432,6.4254,6.4264,6.4732,6.4742,6.4752,6.4881,0,0,0,0,0,0,6.3776,6.3813,6.3887,6.3942,6.3974,6.4186,6.4065,6.4065,6.4119,6.4108,6.4169,6.4173,6.4164,6.4322,6.4349,6.4444,6.4273,6.4724,6.4737,6.4748,6.4868,6.4894,6.4916,0,0,0,0,0,6.3765,6.3919,6.3891,6.3921,6.4067,6.4191,6.421,6.4197,6.4128,6.4201,6.422,6.4171,6.4418,6.4339,6.4368,6.4468,6.4718,6.4733,6.4747,6.4857,6.4889,6.4915,0,0,0,0,0,0,6.3875,6.3926,6.3895,6.4072,6.4128,6.4176,6.4268,6.4232,6.4309,6.4294,6.4275,6.429,6.4445,6.4472,6.4382,6.4653,6.4557,6.4578,6.463,6.466,6.4684,6.4673,6.4282,0,0,0,0,0,6.392,6.4018,6.4056,6.4208,6.4238,6.4248,6.4302,6.4287,6.4345,6.4368,6.4398,6.4455,6.4544,6.4604,6.4689,6.4872,6.4882,6.4955,6.4979,6.4998,6.5016,6.511,6.5142,6.4804,6.4804,6.4804,0,0,6.4014,6.4053,6.4116,6.4231,6.4273,6.4372,6.4269,6.438,6.4453,6.4384,6.4526,6.455,6.4612,6.4778,6.4852,6.4804,6.5112,6.5017,6.5033,6.504,6.5129,6.5161,6.5189,6.4814,6.4812,6.4811,0,0,6.4234,6.4276,6.4405,6.4448,6.4512,6.4518,6.4549,6.4602,6.4615,6.4757,6.4706,6.4792,6.4949,6.4994,6.5037,6.5271,6.5228,6.53,6.5423,6.5516,6.5542,6.5565,6.5645,6.5674,6.5318,6.5319,6.5319,0,6.4342,6.4491,6.4476,6.4589,6.4639,6.4582,6.471,6.4753,6.4842,6.4877,6.4823,6.5015,6.5054,6.5226,6.5283,6.5322,6.5354,6.5292,6.554,6.5563,6.5585,6.566,6.5691,6.5327,6.5326,6.5325,6.5324,0,6.4619,6.4723,6.4819,6.4904,6.4966,6.5087,6.5088,6.5152,6.5131,6.5142,6.5285,6.5328,6.5419,6.5459,6.5442,6.5629,6.5597,6.5542,6.5444,6.5625,6.5695,6.5725,6.5338,6.5335,6.5333,6.5331,0,0,6.4912,6.4986,6.5021,6.5057,6.5123,6.5202,6.5319,6.5407,6.546,6.5523,6.5618,6.5751,6.5699,6.5748,6.5735,6.5816,6.5993,6.575,6.5751,6.579,6.6198,6.6236,6.627,6.5966,6.5971,6.5976,6.6191,0,6.5133,6.5337,6.5325,6.5516,6.5609,6.5554,6.5655,6.5705,6.5718,6.5798,6.5812,6.5904,6.5831,6.586,6.5938,6.5955,6.6074,6.594,6.6051,6.6055,6.6034,6.6308,6.635,6.6551,6.6219,6.6224,6.6227,0,6.5418,6.5489,6.5689,6.5736,6.5775,6.5866,6.5943,6.6022,6.6076,6.6079,6.6133,6.6105,6.622,6.6121,6.6278,6.6187,6.6232,6.6247,6.6254,6.6262,6.615,6.6319,6.6616,6.6644,6.6271,6.6268,6.6265,0,6.5607,6.5753,6.589,6.5923,6.5983,6.6048,6.6076,6.6124,6.6177,6.6245,6.6277,6.6359,6.6402,6.6465,6.6458,6.6387,6.6616,6.6518,6.6619,6.662,6.6668,6.6664,6.6972,6.6703,6.6703,6.6702,6.6702,0,6.5853,6.5976,6.5975,6.6059,6.6194,6.6179,6.6313,6.6333,6.6376,6.6461,6.6421,6.6501,6.6489,6.657,6.6566,6.6694,6.6715,6.6719,6.6716,6.6721,6.672,6.6747,6.6732,6.671,6.6709,6.6707,6.6706,0,6.6086,6.6091,6.6236,6.628,6.6294,6.6391,6.6428,6.6506,6.6515,6.6623,6.6648,6.6661,6.6753,6.6753,6.686,6.6856,6.7012,6.6995,6.6993,6.6989,6.7089,6.7078,6.7422,6.7465,6.7172,6.7175,6.7177,0,6.6241,6.6334,6.6388,6.6442,6.6473,6.6562,6.6614,6.6602,6.6658,6.6725,6.6795,6.6883,6.6953,6.7102,6.7121,6.72,6.7182,6.7298,6.7194,6.7195,6.7179,6.7172,6.7179,6.7317,6.732,6.7323,6.7325,0,6.6514,6.6511,6.6589,6.6667,6.6731,6.6792,6.6848,6.6894,6.6888,6.6953,6.7046,6.71,6.7207,6.7294,6.737,6.7397,6.7359,6.7358,6.7385,6.7389,6.7383,6.7383,6.7045,6.7349,6.7347,6.7345,6.7344,6.7343,6.671,6.6789,6.6838,6.6925,6.6965,6.7018,6.7092,6.7109,6.7187,6.7273,6.7261,6.7364,6.7412,6.7511,6.7545,6.7624,6.7583,6.7623,6.7633,6.7642,6.7651,6.7373,6.7638,6.7637,6.7637,6.7636,6.7636,0,6.6978,6.7006,6.7086,6.7165,6.7232,6.7192,6.7251,6.7309,6.7401,6.745,6.7518,6.7623,6.7707,6.7731,6.7811,6.7869,6.7854,6.789,6.7884,6.789,6.7685,6.7652,6.7901,6.7901,6.7901,6.7901,6.7901,6.7901,6.7125,6.7254,6.7256,6.7404,6.7431,6.7531,6.7568,6.7615,6.7653,6.7773,6.7841,6.7857,6.7894,6.7976,6.805,6.8054,6.8084,6.8127,6.8125,6.7932,6.7905,6.788,6.7848,6.8135,6.8135,6.8322,6.8324,6.8325]},{"header":{"parameterUnit":"m.s-1","parameterCategory":1,"la1":30.2991,"la2":30.254,"lo1":-89.0895,"lo2":-89.0444,"dy":0.0017,"dx":0.0017,"nx":28,"ny":28,"refTime":"2023-07-21T21:00:00:Z","depth":0,"parameterNumber":3,"parameterNumberName":"V-component_of_WINDS"},"data":[0,0,0,0,0,0,0,0,0,0,0,0,0,0,0,0,0,0,0,0,0,0,0,0,0,0,0,0,0,0,0,0,0,0,0,0,0,0,0,0,0,0,0,0,0,0,0,0,0,0,0,0,0,0,0,0,0,0,3.9551,3.9553,0,3.9697,3.9698,3.97,3.9677,3.9674,3.9672,3.967,3.9819,3.9825,3.9832,0,0,0,0,0,0,0,0,0,0,0,0,0,3.9253,3.9258,3.9551,3.9553,3.9555,3.9696,3.9698,3.97,3.9677,3.9674,3.9671,3.9668,3.9817,3.9825,3.9832,0,0,0,0,0,0,0,0,0,0,0,0,0,3.9389,3.926,3.9551,3.956,3.9563,3.9696,3.9699,3.9701,3.9678,3.9674,3.9671,3.9667,3.9815,3.9824,3.9833,3.9966,0,0,3.9862,3.9866,0,0,0,0,0,0,0,0,3.9381,3.94,3.9557,3.956,3.9563,3.9665,3.9648,3.979,3.9679,3.9634,3.967,3.9665,3.9771,3.9784,3.9819,3.9973,3.998,3.9863,3.9869,3.9873,3.9875,0,0,0,0,0,0,0,3.9372,3.9393,3.9609,3.9559,3.9563,3.9557,3.9572,3.9675,3.9722,3.9638,3.9637,3.9654,3.9772,3.981,3.9823,3.9982,3.9863,3.9871,3.9877,3.9881,4.0251,4.0255,0,0,0,0,0,0,3.936,3.9386,3.9604,3.9613,3.9461,3.9566,3.9583,3.9636,3.9721,3.973,3.9657,3.9652,3.9796,3.9812,3.9828,3.9988,3.9873,3.9881,3.9887,4.0247,4.0252,4.0257,0,0,0,0,0,0,3.9353,3.9379,3.9598,3.9499,3.9527,3.9575,3.9635,3.9641,3.9679,3.9735,3.9743,3.9688,3.9793,3.9814,3.9932,3.9993,3.9886,3.9894,4.0242,4.0249,4.0254,4.0311,0,0,0,0,0,0,3.9345,3.9377,3.9429,3.95,3.9532,3.97,3.9639,3.9646,3.9695,3.9691,3.9766,3.9775,3.9792,3.9918,3.9941,4.0004,3.9902,4.0237,4.0245,4.0252,4.0304,4.0319,4.0331,0,0,0,0,0,3.9334,3.9439,3.9431,3.9458,3.9597,3.9704,3.9722,3.9739,3.9701,3.9752,3.9788,3.9773,3.9983,3.993,3.9956,4.0023,4.0233,4.0243,4.0252,4.0298,4.0316,4.0331,0,0,0,0,0,0,3.9374,3.9449,3.9441,3.9572,3.9632,3.97,3.9766,3.9758,3.983,3.9822,3.9841,3.9858,3.9977,4.0012,3.9952,4.0156,4.0102,4.0117,4.0129,4.0146,4.0159,4.0148,3.991,0,0,0,0,0,3.9398,3.9478,3.9539,3.965,3.968,3.9718,3.9765,3.9773,3.9835,3.986,3.9905,3.9966,4.0045,4.0098,4.0174,4.0309,4.0324,4.0368,4.0381,4.0392,4.0405,4.0477,4.0497,4.0287,4.0287,4.0287,0,0,3.9449,3.9499,3.9549,3.9659,3.9706,3.9788,3.9739,3.9829,3.989,3.9874,3.9987,4.0022,4.0091,4.0217,4.0275,4.025,4.0466,4.0404,4.0412,4.0419,4.0489,4.0509,4.0526,4.0294,4.0293,4.0292,0,0,3.9583,3.963,3.9726,3.9774,3.9845,3.9869,3.9892,3.9962,3.9984,4.0097,4.0087,4.016,4.0297,4.0346,4.0389,4.054,4.0529,4.0565,4.0636,4.0706,4.0722,4.0737,4.079,4.0809,4.0577,4.0578,4.0578,0,3.9637,3.9761,3.9776,3.9867,3.9915,3.9904,4.0001,4.0047,4.014,4.0173,4.0143,4.0314,4.036,4.0497,4.0533,4.0569,4.0595,4.0556,4.0719,4.0734,4.0748,4.0799,4.0819,4.0581,4.0581,4.0581,4.058,0,3.9823,3.9909,3.9978,4.0067,4.0123,4.0216,4.0246,4.03,4.0303,4.033,4.0446,4.05,4.0587,4.062,4.0624,4.0757,4.0739,4.0714,4.0661,4.0771,4.0819,4.0839,4.0587,4.0586,4.0584,4.0583,0,0,3.9987,4.0083,4.0108,4.0147,4.0225,4.0291,4.0384,4.0468,4.0514,4.0578,4.0656,4.0771,4.0748,4.0797,4.0806,4.0868,4.0983,4.0835,4.0837,4.086,4.1132,4.115,4.1173,4.0975,4.0979,4.0982,4.1126,0,4.0128,4.0291,4.0307,4.0453,4.0532,4.0522,4.0602,4.0658,4.0685,4.0756,4.0786,4.0868,4.0831,4.0861,4.0921,4.0956,4.1038,4.0946,4.1047,4.1051,4.103,4.1198,4.1218,4.1351,4.1145,4.1148,4.1151,0,4.0314,4.0383,4.0536,4.0601,4.0635,4.0707,4.0785,4.0853,4.0915,4.0931,4.0985,4.0986,4.108,4.1023,4.1153,4.1091,4.1133,4.1156,4.1162,4.1172,4.1107,4.1212,4.1394,4.1414,4.118,4.1178,4.1176,0,4.0417,4.0548,4.0657,4.0691,4.077,4.082,4.0856,4.0915,4.0964,4.1032,4.1064,4.1142,4.1185,4.1245,4.1267,4.1224,4.1396,4.1341,4.1411,4.1411,4.1448,4.1445,4.1639,4.1476,4.1475,4.1475,4.1475,0,4.0573,4.0667,4.0704,4.077,4.0875,4.0893,4.0996,4.1029,4.1081,4.1153,4.115,4.1218,4.1242,4.1314,4.1332,4.1436,4.1456,4.1471,4.1474,4.1471,4.1469,4.1499,4.149,4.148,4.1479,4.1478,4.1477,0,4.0706,4.0734,4.0852,4.0916,4.0934,4.1009,4.1064,4.1128,4.1154,4.1246,4.1268,4.1309,4.1394,4.1421,4.1524,4.1535,4.1657,4.1653,4.1636,4.1636,4.1705,4.1698,4.1924,4.1954,4.1772,4.1773,4.1775,0,4.0802,4.0874,4.0946,4.0994,4.1031,4.1109,4.1159,4.1179,4.1231,4.1307,4.1362,4.1445,4.1513,4.1648,4.1687,4.1765,4.1762,4.1836,4.1774,4.1768,4.1763,4.1758,4.1765,4.1848,4.185,4.1851,4.1853,0,4.0971,4.0982,4.1053,4.113,4.119,4.1251,4.1311,4.135,4.1378,4.1437,4.1523,4.1576,4.168,4.1762,4.1842,4.1878,4.187,4.1872,4.1892,4.189,4.1877,4.1884,4.1667,4.1867,4.1865,4.1864,4.1863,4.1863,4.1089,4.1152,4.1212,4.1292,4.1338,4.1394,4.1457,4.149,4.1562,4.1648,4.1655,4.1748,4.1808,4.1913,4.1953,4.2026,4.2005,4.2034,4.2042,4.2049,4.2054,4.1865,4.204,4.204,4.204,4.2039,4.2039,0,4.1257,4.1295,4.1368,4.1451,4.1513,4.15,4.1565,4.1618,4.17,4.1756,4.1823,4.1921,4.2001,4.2046,4.2126,4.2175,4.2174,4.2195,4.2192,4.22,4.2068,4.2043,4.2195,4.2195,4.2195,4.2195,4.2195,4.2195,4.1351,4.1457,4.1474,4.1603,4.164,4.173,4.1768,4.1819,4.1864,4.1974,4.204,4.2069,4.212,4.2204,4.2276,4.2287,4.2317,4.2341,4.235,4.2226,4.221,4.2194,4.217,4.2347,4.2347,4.2475,4.2476,4.2477]}]]